sat.trackr.live / text

‹ back to catalog

STARLINK-11660 [DTC]

NORAD 63761 · 2025-089L

PAYLOAD ACTIVE UNKNOWN

§ Identity

Operator
Country
US
Launch date
2025-04-29
Launch site
AFETR
Launch vehicle
Mass (kg)
RCS (m²)

Purposes: comms

External: N2YO · Heavens-Above · Gunter

§ Orbital elements

Epoch: 2026-09-20T20:43:28.385472Z

Period
91.67 min
Inclination
43.0011°
Eccentricity
0.0002166
Mean motion
15.70869608 rev/d
Perigee alt
355.0 km
Apogee alt
357.9 km
Semi-major
6,734.5 km
B*
8.7437e-4
RAAN
195.5874°
Arg perigee
283.2720°
Mean anomaly
76.7906°
Rev number
8,078

§ Raw data

STARLINK-11660 [DTC]1 63761U 25089L   26263.86352298  .00113434  00000+0  87437-3 0  99962 63761  43.0011 195.5874 0002166 283.2720  76.7906 15.70869608 80780

JSON: /api/v1/satellites/63761 · /tle

For live sub-satellite position, see the globe view (requires WebGL).

§ Visibility from observer

Set your observer location to see the next 7 days of passes ≥ 10°. The values pass through the URL so the page stays shareable.

No JS? Fill the form by hand. The geolocation button needs JavaScript.